Regional Weather Roundup
Issued by NWS

Home | Current Version | Previous Version | Graphics & Text | Print | Product List | Glossary On
Versions: 1 2 3 4 5 6 7 8 9 10 11 12 13 14 15 16 17 18 19 20 21 22 23 24 25 26 27 28 29 30 31 32 33 34 35 36 37 38 39 40 41 42 43 44 45 46 47 48 49 50
000
ASUS43 KTOP 081908
RWRKS

WEATHER ROUNDUP FOR KANSAS
NATIONAL WEATHER SERVICE GOODLAND KS
100 PM CST THU DEC 08 2016

NOTE:  "FAIR" INDICATES FEW OR NO CLOUDS BELOW 12,000 FEET WITH NO
SIGNIFICANT WEATHER AND/OR OBSTRUCTIONS TO VISIBILITY.

KSZ001>006-013>018-027>032-041>047-082000-
NORTHWEST KANSAS

CITY           SKY/WX    TMP DP  RH WIND       PRES   REMARKS
GOODLAND       SUNNY     13   1  59 VRB3      30.55F
HAYS           SUNNY     22   7  52 N17       30.64F WCI   8
HILL CITY      SUNNY     21   6  52 N9        30.65F
RUSSELL        SUNNY     23   6  48 NW18      30.64F WCI   9
$$

KSZ061>065-074>080-084>089-082000-
SOUTHWEST KANSAS

CITY           SKY/WX    TMP DP  RH WIND       PRES   REMARKS
DODGE CITY     SUNNY     19   5  54 NW10      30.64F WCI   7
ELKHART          N/A     23   0  37 N2          N/A
GARDEN CITY    SUNNY     20   4  50 N6        30.61F
GREAT BEND     SUNNY     24   6  46 N15       30.65F WCI  11
LIBERAL        SUNNY     23   5  46 N7        30.61F
PRATT          SUNNY     23   0  37 N12       30.65F WCI  11
$$

KSZ066>073-081>083-090>101-082000-
SOUTHEAST KANSAS

CITY           SKY/WX    TMP DP  RH WIND       PRES   REMARKS
CHANUTE        SUNNY     27  15  61 NW13      30.64F WCI  16
COFFEYVILLE    SUNNY     29  12  49 NW13      30.67F WCI  19
HUTCHINSON     SUNNY     27   7  42 NW16      30.65F WCI  15
MEDICINE LODGE   N/A     27   4  37 N13G18    30.67F WCI  16
NEWTON         SUNNY     24  11  57 N17       30.64F WCI  11
PARSONS        SUNNY     29  12  49 NW10      30.66F WCI  20
WICHITA INTL   MOSUNNY   28   7  41 N13       30.65F WCI  17
WICHITA JABRA  SUNNY     27   9  46 N15G21    30.64F WCI  15
WICHITA MCCONL SUNNY     27   6  41 N13G18    30.64F WCI  16
WINFIELD       SUNNY     31   6  35 NW14G20   30.67F WCI  21
$$

KSZ007>012-019>026-033>040-048>060-102>105-082000-
NORTHEAST KANSAS

CITY           SKY/WX    TMP DP  RH WIND       PRES   REMARKS
CONCORDIA      SUNNY     22   9  57 NW12G18   30.66F WCI  10
EMPORIA        SUNNY     23  12  62 NW15      30.64F WCI  10
LAWRENCE       SUNNY     25  13  60 W10       30.63F WCI  15
MANHATTAN      SUNNY     26  10  50 W8        30.67F
MARYSVILLE     SUNNY     25   9  50 NW13      30.64S WCI  13
OLATHE IND     SUNNY     23  11  60 W14       30.61F WCI  11
OLATHE EXE     SUNNY     23  10  57 NW12      30.60F WCI  12
SALINA         SUNNY     24   9  52 NW17      30.68F WCI  11
TOPEKA BILLARD SUNNY     25  11  55 NW12      30.64F WCI  14
TOPEKA FORBES  SUNNY     26  12  55 NW17      30.63F WCI  13
$$




USA.gov is the U.S. government's official web portal to all federal, state and local government web resources and services.